Carmi, IL

4:26 PM CDT on October 14, 2019 (GMT -0500)
Carmi Municipal

Weather History for KCUL - August, 2019

Change the Weather History Date:

Sunday, August 25, 2019

  Actual Average (WUND) Record (WUND)
Temperature  
Mean Temperature 70 °F -  
Max Temperature 80 °F - - (-1)
Min Temperature 60 °F - - (-1)
Cooling Degree Days 5    
Growing Degree Days 20 (Base 50)    
Moisture  
Dew Point 66 °F    
Average Humidity 87    
Maximum Humidity 100    
Minimum Humidity 69    
Precipitation  
Precipitation 0.01 in - - ()
Sea Level Pressure  
Sea Level Pressure 29.98 in    
Wind  
Wind Speed 3 mph ()    
Max Wind Speed 8 mph    
Max Gust Speed -    
Visibility 10.0 miles    
Events      
Averages and records for this station are not official NWS values.
T = Trace of Precipitation, MM = Missing Value Source: Averaged Metar Reports

Daily Weather History Graph

Daily Weather History Graph

Search for Another Location

Airport or City:

Astronomy

Aug. 25, 2019 Rise Set
Actual Time 6:16 AM CDT 7:32 PM CDT
Civil Twilight 5:48 AM CDT 7:59 PM CDT
Nautical Twilight 5:15 AM CDT 8:32 PM CDT
Astronomical Twilight 4:41 AM CDT 9:06 PM CDT
Moon 12:53 AM CDT (8/25) 3:50 PM CDT (8/25)
Length of Visible Light 14h 11m
Length of Day
13h 16m
Waning Crescent, 29% of the Moon is Illuminated
Aug 25
Waning Crescent
Aug 30
New
Sep 5
First Quarter
Sep 13
Full
Sep 21
Last Quarter

Hourly Weather History & Observations

Time (CDT) Temp. Heat Index Dew Point Humidity Pressure Visibility Wind Dir Wind Speed Gust Speed Precip Events Conditions
12:15 AM 62.6 °F - 59.0 °F 88% 30.08 in 10.0 mi ENE 5.8 mph - N/A   Clear
12:35 AM 62.6 °F - 59.0 °F 88% 30.07 in 10.0 mi ENE 3.5 mph - N/A   Clear
12:55 AM 62.6 °F - 60.8 °F 94% 30.07 in 10.0 mi Calm Calm - N/A   Clear
1:15 AM 62.6 °F - 60.8 °F 94% 30.07 in 10.0 mi Calm Calm - N/A   Clear
1:35 AM 60.8 °F - 60.8 °F 100% 30.06 in 10.0 mi NE 3.5 mph - N/A   Clear
1:55 AM 60.8 °F - 60.8 °F 100% 30.05 in 10.0 mi Calm Calm - N/A   Clear
2:15 AM 60.8 °F - 60.8 °F 100% 30.05 in 10.0 mi Calm Calm - N/A   Clear
2:55 AM 60.8 °F - 60.8 °F 100% 30.04 in 10.0 mi Calm Calm - N/A   Scattered Clouds
3:35 AM 62.6 °F - 60.8 °F 94% 30.03 in 10.0 mi Calm Calm - N/A   Clear
3:55 AM 62.6 °F - 60.8 °F 94% 30.02 in 10.0 mi NE 3.5 mph - N/A   Clear
4:15 AM 62.6 °F - 60.8 °F 94% 30.03 in 10.0 mi Calm Calm - N/A   Clear
4:35 AM 62.6 °F - 60.8 °F 94% 30.03 in 10.0 mi Calm Calm - N/A   Clear
4:55 AM 60.8 °F - 60.8 °F 100% 30.02 in 10.0 mi Calm Calm - N/A   Clear
5:15 AM 60.8 °F - 60.8 °F 100% 30.03 in 10.0 mi NE 3.5 mph - N/A   Clear
5:35 AM 60.8 °F - 60.8 °F 100% 30.02 in 10.0 mi NE 4.6 mph - N/A   Clear
5:55 AM 60.8 °F - 60.8 °F 100% 30.03 in 10.0 mi NE 3.5 mph - N/A   Clear
6:15 AM 60.8 °F - 59.0 °F 94% 30.03 in 10.0 mi Calm Calm - N/A   Clear
6:35 AM 60.8 °F - 59.0 °F 94% 30.03 in 10.0 mi Calm Calm - N/A   Clear
6:55 AM 60.8 °F - 60.8 °F 100% 30.03 in 10.0 mi Calm Calm - N/A   Clear
7:15 AM 62.6 °F - 60.8 °F 94% 30.03 in 10.0 mi ENE 3.5 mph - N/A   Clear
7:35 AM 62.6 °F - 60.8 °F 94% 30.03 in 10.0 mi ENE 3.5 mph - N/A   Clear
7:55 AM 64.4 °F - 60.8 °F 88% 30.03 in 10.0 mi ENE 4.6 mph - N/A   Clear
8:15 AM 64.4 °F - 59.0 °F 83% 30.03 in 10.0 mi East 4.6 mph - N/A   Clear
8:35 AM 68.0 °F - 60.8 °F 78% 30.03 in 10.0 mi East 4.6 mph - N/A   Scattered Clouds
8:55 AM 68.0 °F - 60.8 °F 78% 30.02 in 10.0 mi East 6.9 mph - N/A   Scattered Clouds
9:15 AM 69.8 °F - 60.8 °F 73% 30.03 in 10.0 mi East 5.8 mph - N/A   Scattered Clouds
9:35 AM 69.8 °F - 60.8 °F 73% 30.02 in 10.0 mi East 5.8 mph - N/A   Mostly Cloudy
10:15 AM 69.8 °F - 64.4 °F 83% 30.03 in 10.0 mi East 4.6 mph - 0.01 in   Light Drizzle
10:35 AM 69.8 °F - 64.4 °F 83% 30.03 in 10.0 mi ENE 3.5 mph - 0.01 in   Mostly Cloudy
10:55 AM 71.6 °F - 64.4 °F 78% 30.03 in 10.0 mi ENE 4.6 mph - 0.01 in   Overcast
11:15 AM 73.4 °F - 64.4 °F 73% 30.02 in 10.0 mi ENE 3.5 mph - N/A   Mostly Cloudy
11:35 AM 73.4 °F - 66.2 °F 78% 30.01 in 10.0 mi ENE 3.5 mph - N/A   Mostly Cloudy
11:55 AM 77.0 °F - 68.0 °F 74% 30.00 in 10.0 mi East 3.5 mph - N/A   Mostly Cloudy
12:15 PM 77.0 °F - 68.0 °F 74% 30.00 in 10.0 mi East 4.6 mph - N/A   Scattered Clouds
12:35 PM 78.8 °F - 68.0 °F 69% 29.99 in 10.0 mi East 5.8 mph - N/A   Clear
12:55 PM 78.8 °F - 68.0 °F 69% 29.99 in 10.0 mi East 6.9 mph - N/A   Clear
1:15 PM 80.6 °F 83.9 °F 69.8 °F 70% 29.99 in 10.0 mi East 6.9 mph - N/A   Clear
1:35 PM 78.8 °F - 68.0 °F 69% 29.98 in 10.0 mi East 5.8 mph - N/A   Scattered Clouds
1:55 PM 78.8 °F - 68.0 °F 69% 29.97 in 10.0 mi East 5.8 mph - N/A   Scattered Clouds
2:15 PM 78.8 °F - 69.8 °F 74% 29.96 in 10.0 mi East 6.9 mph - N/A   Clear
2:35 PM 80.6 °F 83.9 °F 69.8 °F 70% 29.95 in 10.0 mi ESE 3.5 mph - N/A   Clear
2:55 PM 80.6 °F 83.9 °F 69.8 °F 70% 29.95 in 10.0 mi East 4.6 mph - N/A   Scattered Clouds
3:15 PM 80.6 °F 83.9 °F 69.8 °F 70% 29.94 in 10.0 mi East 4.6 mph - N/A   Scattered Clouds
3:35 PM 80.6 °F 83.9 °F 69.8 °F 70% 29.94 in 10.0 mi East 4.6 mph - N/A   Clear
3:55 PM 80.6 °F 83.9 °F 69.8 °F 70% 29.92 in 10.0 mi East 5.8 mph - N/A   Mostly Cloudy
4:15 PM 80.6 °F 83.9 °F 69.8 °F 70% 29.91 in 10.0 mi East 8.1 mph - N/A   Scattered Clouds
4:35 PM 78.8 °F - 69.8 °F 74% 29.91 in 10.0 mi ESE 6.9 mph - N/A   Clear
4:55 PM 78.8 °F - 69.8 °F 74% 29.92 in 10.0 mi ESE 8.1 mph - N/A   Clear
5:15 PM 78.8 °F - 71.6 °F 78% 29.92 in 10.0 mi ESE 4.6 mph - N/A   Clear
5:35 PM 78.8 °F - 71.6 °F 78% 29.92 in 10.0 mi ESE 5.8 mph - N/A   Clear
5:55 PM 78.8 °F - 71.6 °F 78% 29.91 in 10.0 mi ESE 4.6 mph - N/A   Scattered Clouds
6:15 PM 77.0 °F - 71.6 °F 83% 29.91 in 10.0 mi ESE 5.8 mph - N/A   Mostly Cloudy
6:35 PM 77.0 °F - 71.6 °F 83% 29.91 in 10.0 mi SE 4.6 mph - N/A   Overcast
6:55 PM 77.0 °F - 71.6 °F 83% 29.90 in 10.0 mi ESE 4.6 mph - N/A   Mostly Cloudy
7:15 PM 77.0 °F - 71.6 °F 83% 29.90 in 10.0 mi ESE 4.6 mph - N/A   Mostly Cloudy
7:35 PM 75.2 °F - 73.4 °F 94% 29.90 in 10.0 mi ESE 3.5 mph - N/A   Scattered Clouds
7:55 PM 73.4 °F - 73.4 °F 100% 29.90 in 10.0 mi SE 3.5 mph - N/A   Scattered Clouds
8:15 PM 73.4 °F - 73.4 °F 100% 29.90 in 10.0 mi SE 3.5 mph - N/A   Overcast
8:35 PM 73.4 °F - 73.4 °F 100% 29.91 in 7.0 mi SE 5.8 mph - N/A   Scattered Clouds
8:55 PM 73.4 °F - 73.4 °F 100% 29.92 in 10.0 mi SE 5.8 mph - N/A   Scattered Clouds
9:15 PM 73.4 °F - 71.6 °F 94% 29.92 in 10.0 mi SE 4.6 mph - N/A   Scattered Clouds
9:35 PM 71.6 °F - 71.6 °F 100% 29.92 in 10.0 mi SE 4.6 mph - N/A   Overcast
9:55 PM 71.6 °F - 71.6 °F 100% 29.92 in 10.0 mi SE 6.9 mph - N/A   Overcast
10:15 PM 71.6 °F - 71.6 °F 100% 29.92 in 10.0 mi SSE 4.6 mph - N/A   Scattered Clouds
10:35 PM 71.6 °F - 71.6 °F 100% 29.92 in 10.0 mi SE 6.9 mph - N/A   Mostly Cloudy
10:55 PM 71.6 °F - 71.6 °F 100% 29.91 in 10.0 mi SE 5.8 mph - N/A   Scattered Clouds
11:15 PM 71.6 °F - 71.6 °F 100% 29.91 in 10.0 mi SE 6.9 mph - N/A   Mostly Cloudy
11:35 PM 71.6 °F - 71.6 °F 100% 29.90 in 10.0 mi SE 5.8 mph - N/A   Mostly Cloudy
11:55 PM 69.8 °F - 69.8 °F 100% 29.89 in 10.0 mi SE 6.9 mph - N/A   Mostly Cloudy